FW3914 Weather Reports


Display with metric or nautical units.
time (UTC)temp
F
wind
direction
speed
MPH
gust
MPH
rain 1hr
in
rain 24hr
in
rain mn
in
humidity
%
barometer
mb
20260505024524 74 143 2.0 10.0 0.00 0.00 0.00 73 1006.3
20260505024021 74 195 2.0 6.0 0.00 0.00 0.00 73 1006.5
20260505023518 74 218 3.0 9.0 0.00 0.00 0.00 73 1006.4
20260505023015 74 128 8.0 8.0 0.00 0.00 0.00 73 1006.1
20260505022513 74 197 1.0 7.0 0.00 0.00 0.00 72 1006.2
20260505022010 75 254 3.0 8.0 0.00 0.00 0.00 72 1006.3
20260505021506 75 202 4.0 9.0 0.00 0.00 0.00 71 1006.1
20260505021003 75 214 4.0 10.0 0.00 0.00 0.00 71 1006.1
20260505020457 75 192 4.0 8.0 0.00 0.00 0.00 71 1006.2
20260505015954 75 140 3.0 11.0 0.00 0.00 0.00 71 1006.0
20260505015452 75 148 4.0 11.0 0.00 0.00 0.00 70 1006.4
20260505014949 75 248 3.0 13.0 0.00 0.00 0.00 70 1006.1
20260505014446 75 224 4.0 12.0 0.00 0.00 0.00 70 1006.3
20260505013943 75 210 2.0 6.0 0.00 0.00 0.00 70 1006.5
20260505013440 76 227 5.0 8.0 0.00 0.00 0.00 69 1006.2
20260505012937 76 212 3.0 6.0 0.00 0.00 0.00 69 1006.4
20260505012435 76 233 3.0 10.0 0.00 0.00 0.00 69 1006.4
20260505011931 76 263 2.0 9.0 0.00 0.00 0.00 68 1006.2
20260505011428 76 223 10.0 14.0 0.00 0.00 0.00 68 1006.3
20260505010925 76 202 2.0 7.0 0.00 0.00 0.00 68 1006.1
20260505010420 76 226 3.0 7.0 0.00 0.00 0.00 67 1006.1
20260505005916 77 189 3.0 13.0 0.00 0.00 0.00 67 1006.2
20260505005414 77 253 3.0 16.0 0.00 0.00 0.00 67 1005.8
20260505004911 77 166 6.0 12.0 0.00 0.00 0.00 66 1006.3
20260505004407 77 178 2.0 9.0 0.00 0.00 0.00 66 1006.1
20260505003904 77 193 4.0 15.0 0.00 0.00 0.00 66 1006.3
20260505003401 77 182 4.0 12.0 0.00 0.00 0.00 65 1006.4
20260505002858 78 234 3.0 9.0 0.00 0.00 0.00 65 1006.5
20260505002354 78 210 3.0 9.0 0.00 0.00 0.00 64 1006.0
20260505001853 78 213 3.0 9.0 0.00 0.00 0.00 64 1006.3
20260505001349 78 205 4.0 16.0 0.00 0.00 0.00 63 1006.7
20260505000847 79 202 6.0 16.0 0.00 0.00 0.00 63 1006.4
20260505000344 79 259 4.0 13.0 0.00 0.00 0.00 63 1006.2
20260504235841 79 200 5.0 13.0 0.00 0.00 0.00 62 1006.2
20260504235338 79 204 5.0 20.0 0.00 0.00 0.00 62 1006.4
20260504234834 79 236 7.0 14.0 0.00 0.00 0.00 62 1006.4
20260504234332 79 201 6.0 15.0 0.00 0.00 0.00 62 1006.7
20260504233829 79 239 5.0 19.0 0.00 0.00 0.00 62 1006.3
20260504233324 79 188 3.0 14.0 0.00 0.00 0.00 62 1006.5
20260504232821 80 238 5.0 13.0 0.00 0.00 0.00 62 1006.7
20260504232319 80 220 5.0 13.0 0.00 0.00 0.00 61 1006.4
20260504231815 81 180 6.0 11.0 0.00 0.00 0.00 60 1006.9
20260504231312 81 190 6.0 14.0 0.00 0.00 0.00 59 1006.9
20260504230808 82 242 7.0 19.0 0.00 0.00 0.00 58 1006.8
20260504230306 82 201 6.0 18.0 0.00 0.00 0.00 57 1006.9
20260504225805 82 202 6.0 18.0 0.00 0.00 0.00 57 1006.9
20260504225301 82 233 3.0 15.0 0.00 0.00 0.00 58 1006.9
20260504224758 82 262 4.0 14.0 0.00 0.00 0.00 57 1006.9
20260504224255 83 213 4.0 12.0 0.00 0.00 0.00 56 1007.1
20260504223751 83 213 3.0 15.0 0.00 0.00 0.00 57 1007.0
20260504223247 82 198 5.0 13.0 0.00 0.00 0.00 56 1007.0
20260504222744 82 214 5.0 13.0 0.00 0.00 0.00 57 1006.9
20260504222241 82 252 5.0 15.0 0.00 0.00 0.00 57 1006.8
20260504221739 82 260 5.0 17.0 0.00 0.00 0.00 57 1006.9
20260504221235 82 231 4.0 23.0 0.00 0.00 0.00 56 1006.8
20260504220732 81 165 2.0 12.0 0.00 0.00 0.00 58 1007.2
20260504220229 81 206 4.0 16.0 0.00 0.00 0.00 58 1007.1
20260504215726 82 263 5.0 24.0 0.00 0.00 0.00 57 1007.2
20260504215223 82 262 7.0 13.0 0.00 0.00 0.00 57 1007.4
20260504214719 82 245 7.0 15.0 0.00 0.00 0.00 56 1007.4
20260504214215 82 222 5.0 10.0 0.00 0.00 0.00 56 1007.4
20260504213712 83 301 15.0 15.0 0.00 0.00 0.00 56 1007.5
20260504213209 83 234 5.0 12.0 0.00 0.00 0.00 56 1007.2
20260504212706 83 157 3.0 16.0 0.00 0.00 0.00 55 1007.6
20260504212203 83 214 3.0 16.0 0.00 0.00 0.00 55 1007.7
20260504211700 84 213 6.0 29.0 0.00 0.00 0.00 54 1007.8
20260504211155 83 224 5.0 12.0 0.00 0.00 0.00 54 1008.0
20260504210654 82 280 4.0 19.0 0.00 0.00 0.00 55 1007.7
20260504210150 83 204 5.0 15.0 0.00 0.00 0.00 53 1007.8
20260504205647 84 225 2.0 12.0 0.00 0.00 0.00 53 1008.1
20260504205144 84 203 4.0 6.0 0.00 0.00 0.00 53 1008.0
20260504204643 83 187 4.0 13.0 0.00 0.00 0.00 53 1008.2
20260504204142 83 208 3.0 12.0 0.00 0.00 0.00 52 1008.4
20260504203640 83 224 4.0 15.0 0.00 0.00 0.00 53 1008.5
20260504203137 84 277 3.0 9.0 0.00 0.00 0.00 52 1008.8
20260504202637 83 221 5.0 13.0 0.00 0.00 0.00 52 1008.9
20260504202134 83 209 12.0 12.0 0.00 0.00 0.00 52 1009.0
20260504201631 83 258 3.0 14.0 0.00 0.00 0.00 53 1009.1
20260504201129 83 228 3.0 13.0 0.00 0.00 0.00 51 1009.5
20260504200626 83 242 5.0 13.0 0.00 0.00 0.00 52 1009.2
20260504200122 83 256 3.0 14.0 0.00 0.00 0.00 52 1009.4
20260504195618 83 235 4.0 11.0 0.00 0.00 0.00 54 1009.4
20260504195115 82 231 5.0 22.0 0.00 0.00 0.00 52 1009.5
20260504194612 82 274 3.0 13.0 0.00 0.00 0.00 52 1009.5
20260504194107 82 173 4.0 14.0 0.00 0.00 0.00 51 1009.8
20260504193604 83 231 4.0 12.0 0.00 0.00 0.00 51 1009.6
20260504193102 82 252 3.0 15.0 0.00 0.00 0.00 52 1009.9
20260504192600 81 84 5.0 15.0 0.00 0.00 0.00 51 1009.7
20260504192058 81 67 4.0 9.0 0.00 0.00 0.00 52 1009.8
20260504191556 81 242 6.0 14.0 0.00 0.00 0.00 51 1010.2
20260504191052 81 216 4.0 16.0 0.00 0.00 0.00 51 1010.2
20260504190548 82 250 4.0 10.0 0.00 0.00 0.00 51 1010.2
20260504190044 81 214 3.0 12.0 0.00 0.00 0.00 51 1010.2
20260504185542 81 229 1.0 9.0 0.00 0.00 0.00 51 1010.4
20260504185038 80 144 5.0 16.0 0.00 0.00 0.00 50 1010.3
20260504184533 80 216 4.0 12.0 0.00 0.00 0.00 50 1010.1
20260504184029 81 247 3.0 17.0 0.00 0.00 0.00 50 1010.4
20260504183526 80 209 4.0 13.0 0.00 0.00 0.00 50 1010.5
20260504183025 80 223 4.0 18.0 0.00 0.00 0.00 48 1010.7
20260504182521 80 223 5.0 13.0 0.00 0.00 0.00 49 1010.6
20260504182018 79 189 5.0 15.0 0.00 0.00 0.00 50 1010.8
20260504181515 80 206 7.0 14.0 0.00 0.00 0.00 48 1010.8
20260504181014 80 206 4.0 13.0 0.00 0.00 0.00 49 1010.9
20260504180512 78 226 7.0 15.0 0.00 0.00 0.00 49 1010.8
20260504180011 79 271 7.0 12.0 0.00 0.00 0.00 49 1011.1
20260504175508 79 149 7.0 15.0 0.00 0.00 0.00 49 1010.9
20260504175005 80 219 5.0 9.0 0.00 0.00 0.00 51 1011.2
20260504174502 79 254 2.0 10.0 0.00 0.00 0.00 50 1011.7
20260504173959 78 228 5.0 16.0 0.00 0.00 0.00 49 1011.6
20260504173456 78 180 7.0 11.0 0.00 0.00 0.00 50 1011.6
20260504172953 77 188 4.0 19.0 0.00 0.00 0.00 51 1011.6
20260504172449 77 180 4.0 20.0 0.00 0.00 0.00 50 1011.5
20260504171946 77 115 4.0 14.0 0.00 0.00 0.00 52 1011.7
20260504171443 77 165 4.0 16.0 0.00 0.00 0.00 52 1011.9
20260504170940 78 173 6.0 14.0 0.00 0.00 0.00 53 1012.0
20260504170436 77 236 3.0 12.0 0.00 0.00 0.00 52 1012.2
20260504160355 75 171 7.0 15.0 0.00 0.00 0.00 54 1012.8
20260504150820 72 194 6.0 16.0 0.00 0.00 0.00 61 1013.2
20260504150316 71 190 2.0 16.0 0.00 0.00 0.00 64 1012.9
20260504141247 69 279 2.0 9.0 0.00 0.00 0.00 67 1013.4
20260504140743 69 213 4.0 11.0 0.00 0.00 0.00 67 1013.3
20260504140239 68 199 6.0 10.0 0.00 0.00 0.00 68 1013.3
20260504130708 65 157 2.0 7.0 0.00 0.00 0.00 73 1013.4
20260504130203 65 202 2.0 4.0 0.00 0.00 0.00 74 1013.5
20260504120127 61 227 1.0 3.0 0.00 0.00 0.00 78 1013.0
20260504110555 61 289 1.0 3.0 0.00 0.00 0.00 77 1012.9
20260504100516 62 206 3.0 8.0 0.00 0.00 0.00 74 1013.4
20260504081910 65 213 6.0 11.0 0.00 0.00 0.00 65 1013.7
20260504081406 65 202 3.0 7.0 0.00 0.00 0.00 64 1013.7
20260504080902 65 204 1.0 9.0 0.00 0.00 0.00 62 1013.8
20260504080400 65 211 3.0 9.0 0.00 0.00 0.00 62 1013.5
20260504070327 65 210 2.0 4.0 0.00 0.00 0.00 63 1014.5
20260504060247 66 180 0.0 6.0 0.00 0.00 0.00 61 1015.1
20260504050715 68 187 2.0 5.0 0.00 0.00 0.00 58 1015.7
20260504050212 68 249 0.0 5.0 0.00 0.00 0.00 57 1015.8
20260504045709 68 214 3.0 6.0 0.00 0.00 0.00 57 1015.9
20260504045204 68 202 2.0 6.0 0.00 0.00 0.00 56 1015.8
20260504044702 68 255 1.0 7.0 0.00 0.00 0.00 56 1016.0
20260504044159 68 193 2.0 5.0 0.00 0.00 0.00 56 1015.7
20260504043655 68 109 3.0 5.0 0.00 0.00 0.00 56 1016.0
20260504043152 68 196 3.0 5.0 0.00 0.00 0.00 56 1015.8
20260504042650 68 189 3.0 8.0 0.00 0.00 0.00 56 1015.9
20260504042146 68 166 4.0 6.0 0.00 0.00 0.00 56 1015.9
20260504041642 68 269 0.0 5.0 0.00 0.00 0.00 56 1015.9
20260504041138 68 252 2.0 5.0 0.00 0.00 0.00 56 1015.9
20260504040636 68 230 3.0 4.0 0.00 0.00 0.00 56 1016.1
20260504040133 69 234 2.0 5.0 0.00 0.00 0.00 55 1016.0
20260504035629 69 200 2.0 5.0 0.00 0.00 0.00 55 1016.0
20260504035126 69 218 1.0 4.0 0.00 0.00 0.00 55 1015.9
20260504034624 69 213 3.0 4.0 0.00 0.00 0.00 54 1015.8
20260504034120 69 255 0.0 3.0 0.00 0.00 0.00 54 1016.1
20260504033618 69 228 2.0 6.0 0.00 0.00 0.00 54 1015.9
20260504033115 69 187 2.0 5.0 0.00 0.00 0.00 54 1015.7
20260504032612 69 224 3.0 6.0 0.00 0.00 0.00 53 1015.8
20260504032109 69 203 1.0 4.0 0.00 0.00 0.00 53 1015.9
20260504031606 69 242 2.0 4.0 0.00 0.00 0.00 53 1015.9
20260504031102 70 250 2.0 5.0 0.00 0.00 0.00 52 1015.9
20260504030559 70 223 0.0 3.0 0.00 0.00 0.00 52 1015.7
20260504030056 70 228 2.0 5.0 0.00 0.00 0.00 52 1015.7
20260504025553 70 237 1.0 3.0 0.00 0.00 0.00 51 1015.7
20260504025050 71 242 3.0 5.0 0.00 0.00 0.00 51 1015.6